| time (UTC) | temp C | wind direction | speed KPH | gust KPH | rain 1hr cm | rain 24hr cm | rain mn cm | humidity % | barometer mb |
| 20260904154546 | 25 | 209 | 4.8 | 14.5 | 0.00 | 0.00 | 0.00 | 60 | 1009.6 |
| 20260904154521 | 25 | 210 | 3.2 | 8.0 | 0.00 | 0.00 | 0.00 | 60 | 1009.0 |
| 20260904154045 | 25 | 225 | 4.8 | 14.5 | 0.00 | 0.00 | 0.00 | 60 | 1009.8 |
| 20260904153518 | 25 | 239 | 6.4 | 14.5 | 0.00 | 0.00 | 0.00 | 60 | 1009.9 |
| 20260904153044 | 25 | 238 | 4.8 | 16.1 | 0.00 | 0.00 | 0.00 | 59 | 1009.5 |
| 20260904153004 | 25 | 237 | 6.4 | 16.1 | 0.00 | 0.00 | 0.00 | 59 | 1010.1 |
| 20260904152449 | 25 | 238 | 6.4 | 22.5 | 0.00 | 0.00 | 0.00 | 59 | 1010.1 |
| 20260904151936 | 26 | 247 | 6.4 | 22.5 | 0.00 | 0.00 | 0.00 | 58 | 1010.1 |
| 20260904151523 | 26 | 232 | 3.2 | 24.1 | 0.00 | 0.00 | 0.00 | 58 | 1009.7 |
| 20260904151435 | 26 | 234 | 8.0 | 24.1 | 0.00 | 0.00 | 0.00 | 58 | 1010.3 |
| 20260904150920 | 26 | 240 | 11.3 | 30.6 | 0.00 | 0.00 | 0.00 | 58 | 1010.3 |
| 20260904150406 | 26 | 309 | 11.3 | 27.4 | 0.00 | 0.00 | 0.00 | 59 | 1010.4 |
| 20260904150035 | 25 | 261 | 12.9 | 22.5 | 0.00 | 0.00 | 0.00 | 59 | 1009.8 |
| 20260904145851 | 26 | 252 | 11.3 | 24.1 | 0.00 | 0.00 | 0.00 | 59 | 1010.4 |
| 20260904145340 | 26 | 254 | 12.9 | 24.1 | 0.00 | 0.00 | 0.00 | 59 | 1010.5 |
| 20260904144827 | 26 | 242 | 9.7 | 22.5 | 0.00 | 0.00 | 0.00 | 59 | 1010.5 |
| 20260904144557 | 25 | 238 | 12.9 | 22.5 | 0.00 | 0.00 | 0.00 | 59 | 1010.0 |
| 20260904144314 | 26 | 260 | 6.4 | 20.9 | 0.00 | 0.00 | 0.00 | 59 | 1010.6 |
| 20260904143803 | 26 | 231 | 9.7 | 27.4 | 0.00 | 0.00 | 0.00 | 60 | 1010.6 |
| 20260904143302 | 26 | 210 | 9.7 | 27.4 | 0.00 | 0.00 | 0.00 | 59 | 1010.6 |
| 20260904143032 | 25 | 236 | 9.7 | 17.7 | 0.00 | 0.00 | 0.00 | 60 | 1010.2 |
| 20260904142750 | 26 | 233 | 8.0 | 19.3 | 0.00 | 0.00 | 0.00 | 60 | 1010.8 |
| 20260904142234 | 26 | 257 | 9.7 | 19.3 | 0.00 | 0.00 | 0.00 | 61 | 1010.9 |
| 20260904141724 | 25 | 321 | 9.7 | 17.7 | 0.00 | 0.00 | 0.00 | 61 | 1011.0 |
| 20260904141620 | 25 | 252 | 8.0 | 16.1 | 0.00 | 0.00 | 0.00 | 61 | 1010.5 |
| 20260904140147 | 25 | 243 | 9.7 | 24.1 | 0.00 | 0.00 | 0.00 | 62 | 1011.0 |
| 20260904140126 | 25 | 238 | 4.8 | 22.5 | 0.00 | 0.00 | 0.00 | 62 | 1010.5 |
| 20260904135643 | 25 | 236 | 11.3 | 24.1 | 0.00 | 0.00 | 0.00 | 61 | 1011.1 |
| 20260904135144 | 25 | 229 | 9.7 | 24.1 | 0.00 | 0.00 | 0.00 | 61 | 1011.2 |
| 20260904134621 | 25 | 237 | 8.0 | 24.1 | 0.00 | 0.00 | 0.00 | 60 | 1010.8 |
| 20260904134121 | 26 | 240 | 11.3 | 24.1 | 0.00 | 0.00 | 0.00 | 61 | 1011.3 |
| 20260904133056 | 25 | 281 | 9.7 | 30.6 | 0.00 | 0.00 | 0.00 | 60 | 1011.4 |
| 20260904133032 | 25 | 246 | 14.5 | 30.6 | 0.00 | 0.00 | 0.00 | 60 | 1010.9 |
| 20260904131534 | 25 | 237 | 9.7 | 25.7 | 0.00 | 0.00 | 0.00 | 64 | 1011.6 |
| 20260904131509 | 24 | 211 | 11.3 | 25.7 | 0.00 | 0.00 | 0.00 | 64 | 1011.1 |
| 20260904131024 | 25 | 228 | 8.0 | 22.5 | 0.00 | 0.00 | 0.00 | 64 | 1011.8 |
| 20260904130509 | 25 | 234 | 9.7 | 19.3 | 0.00 | 0.00 | 0.00 | 65 | 1011.8 |
| 20260904130034 | 24 | 240 | 8.0 | 17.7 | 0.00 | 0.00 | 0.00 | 65 | 1011.3 |
| 20260904125958 | 24 | 249 | 8.0 | 22.5 | 0.00 | 0.00 | 0.00 | 65 | 1011.9 |
| 20260904125446 | 24 | 246 | 8.0 | 22.5 | 0.00 | 0.00 | 0.00 | 65 | 1012.1 |
| 20260904124514 | 24 | 255 | 9.7 | 22.5 | 0.00 | 0.00 | 0.00 | 65 | 1011.7 |
| 20260904124435 | 24 | 247 | 9.7 | 22.5 | 0.00 | 0.00 | 0.00 | 64 | 1012.2 |
| 20260904123936 | 24 | 176 | 9.7 | 25.7 | 0.00 | 0.00 | 0.00 | 65 | 1012.3 |
| 20260904123421 | 24 | 231 | 9.7 | 25.7 | 0.00 | 0.00 | 0.00 | 65 | 1012.3 |
| 20260904123049 | 24 | 234 | 8.0 | 22.5 | 0.00 | 0.00 | 0.00 | 65 | 1011.9 |
| 20260904122907 | 24 | 228 | 11.3 | 24.1 | 0.00 | 0.00 | 0.00 | 64 | 1012.4 |
| 20260904122402 | 24 | 184 | 11.3 | 25.7 | 0.00 | 0.00 | 0.00 | 66 | 1012.4 |
| 20260904121850 | 24 | 258 | 9.7 | 24.1 | 0.00 | 0.00 | 0.00 | 66 | 1012.5 |
| 20260904121628 | 23 | 221 | 12.9 | 25.7 | 0.00 | 0.00 | 0.00 | 65 | 1012.1 |
| 20260904121343 | 24 | 232 | 9.7 | 27.4 | 0.00 | 0.00 | 0.00 | 65 | 1012.6 |
| 20260904120850 | 24 | 223 | 11.3 | 38.6 | 0.00 | 0.00 | 0.00 | 65 | 1012.7 |
| 20260904120330 | 24 | 189 | 12.9 | 38.6 | 0.00 | 0.00 | 0.00 | 65 | 1012.7 |
| 20260904120018 | 24 | 246 | 14.5 | 38.6 | 0.00 | 0.00 | 0.00 | 64 | 1012.2 |
| 20260904115832 | 24 | 227 | 12.9 | 38.6 | 0.00 | 0.00 | 0.00 | 63 | 1012.7 |
| 20260904115328 | 24 | 342 | 11.3 | 27.4 | 0.00 | 0.00 | 0.00 | 65 | 1012.8 |
| 20260904114831 | 24 | 221 | 12.9 | 30.6 | 0.00 | 0.00 | 0.00 | 66 | 1012.9 |
| 20260904114502 | 23 | 232 | 11.3 | 30.6 | 0.00 | 0.00 | 0.00 | 65 | 1012.5 |
| 20260904114323 | 24 | 231 | 11.3 | 30.6 | 0.00 | 0.00 | 0.00 | 64 | 1013.1 |
| 20260904113256 | 24 | 262 | 16.1 | 37.0 | 0.00 | 0.00 | 0.00 | 65 | 1013.3 |
| 20260904113034 | 23 | 219 | 12.9 | 37.0 | 0.00 | 0.00 | 0.00 | 64 | 1012.8 |
| 20260904112745 | 24 | 244 | 16.1 | 37.0 | 0.00 | 0.00 | 0.00 | 64 | 1013.3 |
| 20260904112239 | 24 | 279 | 16.1 | 37.0 | 0.00 | 0.00 | 0.00 | 65 | 1013.3 |
| 20260904111728 | 23 | 213 | 14.5 | 37.0 | 0.00 | 0.00 | 0.00 | 64 | 1013.4 |
| 20260904111600 | 23 | 192 | 17.7 | 37.0 | 0.00 | 0.00 | 0.00 | 64 | 1012.9 |
| 20260904111217 | 23 | 230 | 11.3 | 32.2 | 0.00 | 0.00 | 0.00 | 65 | 1013.4 |
| 20260904110142 | 23 | 213 | 14.5 | 38.6 | 0.00 | 0.00 | 0.00 | 65 | 1013.6 |
| 20260904110017 | 23 | 231 | 12.9 | 38.6 | 0.00 | 0.00 | 0.00 | 63 | 1013.1 |
| 20260904105117 | 24 | 317 | 12.9 | 40.2 | 0.00 | 0.00 | 0.00 | 62 | 1013.7 |
| 20260904104607 | 24 | 254 | 11.3 | 40.2 | 0.00 | 0.00 | 0.00 | 63 | 1013.7 |
| 20260904104540 | 23 | 242 | 12.9 | 40.2 | 0.00 | 0.00 | 0.00 | 63 | 1013.3 |
| 20260904104044 | 24 | 238 | 12.9 | 37.0 | 0.00 | 0.00 | 0.00 | 63 | 1013.6 |
| 20260904103534 | 24 | 238 | 11.3 | 37.0 | 0.00 | 0.00 | 0.00 | 62 | 1014.0 |
| 20260904103105 | 24 | 253 | 6.4 | 32.2 | 0.00 | 0.00 | 0.00 | 64 | 1013.2 |
| 20260904103022 | 24 | 197 | 9.7 | 32.2 | 0.00 | 0.00 | 0.00 | 64 | 1013.7 |
| 20260904102509 | 24 | 217 | 11.3 | 32.2 | 0.00 | 0.00 | 0.00 | 63 | 1013.9 |
| 20260904101957 | 23 | 202 | 12.9 | 24.1 | 0.00 | 0.00 | 0.00 | 66 | 1014.0 |
| 20260904101520 | 23 | 255 | 11.3 | 27.4 | 0.00 | 0.00 | 0.00 | 65 | 1013.4 |
| 20260904101441 | 23 | 230 | 14.5 | 27.4 | 0.00 | 0.00 | 0.00 | 65 | 1013.9 |
| 20260904100931 | 23 | 200 | 14.5 | 27.4 | 0.00 | 0.00 | 0.00 | 65 | 1014.1 |
| 20260904100418 | 23 | 231 | 14.5 | 27.4 | 0.00 | 0.00 | 0.00 | 65 | 1014.2 |
| 20260904100048 | 22 | 199 | 12.9 | 27.4 | 0.00 | 0.00 | 0.00 | 66 | 1013.7 |
| 20260904095907 | 23 | 244 | 14.5 | 29.0 | 0.00 | 0.00 | 0.00 | 66 | 1014.3 |
| 20260904095352 | 23 | 208 | 14.5 | 29.0 | 0.00 | 0.00 | 0.00 | 65 | 1014.4 |
| 20260904094839 | 23 | 215 | 12.9 | 27.4 | 0.00 | 0.00 | 0.00 | 66 | 1014.5 |
| 20260904094504 | 22 | 229 | 12.9 | 24.1 | 0.00 | 0.00 | 0.00 | 66 | 1014.0 |
| 20260904093026 | 22 | 226 | 9.7 | 27.4 | 0.00 | 0.00 | 0.00 | 69 | 1014.1 |
| 20260904092745 | 22 | 261 | 12.9 | 24.1 | 0.00 | 0.00 | 0.00 | 70 | 1014.7 |
| 20260904092233 | 22 | 234 | 11.3 | 29.0 | 0.00 | 0.00 | 0.00 | 70 | 1014.8 |
| 20260904091552 | 21 | 246 | 8.0 | 17.7 | 0.00 | 0.00 | 0.00 | 70 | 1014.4 |
| 20260904091206 | 22 | 249 | 9.7 | 20.9 | 0.00 | 0.00 | 0.00 | 70 | 1014.9 |
| 20260904090651 | 21 | 264 | 9.7 | 20.9 | 0.00 | 0.00 | 0.00 | 72 | 1015.0 |
| 20260904090138 | 21 | 213 | 8.0 | 16.1 | 0.00 | 0.00 | 0.00 | 75 | 1015.1 |
| 20260904090010 | 21 | 228 | 6.4 | 16.1 | 0.00 | 0.00 | 0.00 | 74 | 1014.6 |
| 20260904085625 | 21 | 225 | 6.4 | 20.9 | 0.00 | 0.00 | 0.00 | 74 | 1015.2 |
| 20260904085111 | 21 | 236 | 9.7 | 20.9 | 0.00 | 0.00 | 0.00 | 74 | 1015.1 |
| 20260904084556 | 21 | 230 | 11.3 | 22.5 | 0.00 | 0.00 | 0.00 | 75 | 1015.1 |
| 20260904084533 | 20 | 190 | 8.0 | 22.5 | 0.00 | 0.00 | 0.00 | 75 | 1014.6 |
| 20260904083541 | 20 | 230 | 9.7 | 19.3 | 0.00 | 0.00 | 0.00 | 75 | 1015.2 |
| 20260904083052 | 20 | 227 | 9.7 | 17.7 | 0.00 | 0.00 | 0.00 | 76 | 1014.9 |
| 20260904083015 | 20 | 244 | 8.0 | 19.3 | 0.00 | 0.00 | 0.00 | 76 | 1015.3 |
| 20260904081948 | 20 | 208 | 6.4 | 14.5 | 0.00 | 0.00 | 0.00 | 79 | 1015.4 |
| 20260904081517 | 19 | 207 | 8.0 | 14.5 | 0.00 | 0.00 | 0.00 | 79 | 1015.0 |
| 20260904081438 | 20 | 182 | 8.0 | 14.5 | 0.00 | 0.00 | 0.00 | 79 | 1015.5 |
| 20260904080408 | 19 | 201 | 9.7 | 19.3 | 0.00 | 0.00 | 0.00 | 78 | 1015.6 |
| 20260904080046 | 19 | 211 | 9.7 | 19.3 | 0.00 | 0.00 | 0.00 | 79 | 1015.2 |
| 20260904075854 | 19 | 231 | 8.0 | 19.3 | 0.00 | 0.00 | 0.00 | 79 | 1015.6 |
| 20260904074826 | 19 | 227 | 8.0 | 14.5 | 0.00 | 0.00 | 0.00 | 79 | 1015.6 |
| 20260904074556 | 18 | 206 | 8.0 | 14.5 | 0.00 | 0.00 | 0.00 | 80 | 1015.2 |
| 20260904074315 | 19 | 196 | 9.7 | 17.7 | 0.00 | 0.00 | 0.00 | 80 | 1015.6 |
| 20260904073806 | 18 | 245 | 9.7 | 17.7 | 0.00 | 0.00 | 0.00 | 80 | 1015.5 |
| 20260904073015 | 18 | 232 | 8.0 | 14.5 | 0.00 | 0.00 | 0.00 | 80 | 1015.2 |
| 20260904072733 | 18 | 186 | 6.4 | 14.5 | 0.00 | 0.00 | 0.00 | 80 | 1015.7 |
| 20260904072218 | 18 | 192 | 8.0 | 16.1 | 0.00 | 0.00 | 0.00 | 80 | 1015.7 |
| 20260904071720 | 18 | 213 | 8.0 | 14.5 | 0.00 | 0.00 | 0.00 | 80 | 1015.6 |
| 20260904071538 | 18 | 209 | 6.4 | 16.1 | 0.00 | 0.00 | 0.00 | 80 | 1015.2 |
| 20260904071151 | 18 | 249 | 8.0 | 17.7 | 0.00 | 0.00 | 0.00 | 79 | 1015.6 |
| 20260904070637 | 18 | 215 | 6.4 | 14.5 | 0.00 | 0.00 | 0.00 | 80 | 1015.6 |
| 20260904070123 | 18 | 234 | 6.4 | 14.5 | 0.00 | 0.00 | 0.00 | 80 | 1015.7 |
| 20260904070056 | 18 | 244 | 3.2 | 14.5 | 0.00 | 0.00 | 0.00 | 81 | 1015.3 |
| 20260904065609 | 18 | 207 | 6.4 | 14.5 | 0.00 | 0.00 | 0.00 | 81 | 1015.7 |
| 20260904065053 | 18 | 246 | 8.0 | 17.7 | 0.00 | 0.00 | 0.00 | 81 | 1015.8 |
| 20260904064539 | 18 | 250 | 6.4 | 17.7 | 0.00 | 0.00 | 0.00 | 81 | 1015.9 |
| 20260904064511 | 18 | 242 | 9.7 | 17.7 | 0.00 | 0.00 | 0.00 | 81 | 1015.5 |
| 20260904064022 | 18 | 232 | 4.8 | 12.9 | 0.00 | 0.00 | 0.00 | 82 | 1015.8 |
| 20260904063510 | 18 | 225 | 4.8 | 12.9 | 0.00 | 0.00 | 0.00 | 82 | 1015.7 |
| 20260904063032 | 17 | 237 | 4.8 | 12.9 | 0.00 | 0.00 | 0.00 | 82 | 1015.2 |
| 20260904062946 | 18 | 229 | 4.8 | 11.3 | 0.00 | 0.00 | 0.00 | 82 | 1015.7 |
| 20260904062434 | 17 | 244 | 4.8 | 12.9 | 0.00 | 0.00 | 0.00 | 82 | 1015.7 |
| 20260904061921 | 17 | 245 | 6.4 | 12.9 | 0.00 | 0.00 | 0.00 | 82 | 1015.6 |
| 20260904061552 | 17 | 245 | 4.8 | 12.9 | 0.00 | 0.00 | 0.00 | 82 | 1015.3 |
| 20260904061409 | 17 | 234 | 6.4 | 12.9 | 0.00 | 0.00 | 0.00 | 82 | 1015.6 |
| 20260904060855 | 17 | 241 | 4.8 | 12.9 | 0.00 | 0.00 | 0.00 | 82 | 1015.7 |
| 20260904060338 | 17 | 199 | 4.8 | 8.0 | 0.00 | 0.00 | 0.00 | 82 | 1015.7 |
| 20260904060008 | 17 | 243 | 3.2 | 8.0 | 0.00 | 0.00 | 0.00 | 83 | 1015.3 |
| 20260904055827 | 17 | 212 | 4.8 | 8.0 | 0.00 | 0.00 | 0.00 | 82 | 1015.7 |
| 20260904055312 | 17 | 198 | 4.8 | 11.3 | 0.00 | 0.00 | 0.00 | 82 | 1015.6 |
| 20260904054800 | 17 | 236 | 6.4 | 11.3 | 0.00 | 0.00 | 0.00 | 82 | 1015.5 |
| 20260904054533 | 17 | 225 | 6.4 | 11.3 | 0.00 | 0.00 | 0.00 | 82 | 1015.0 |
| 20260904054244 | 17 | 212 | 6.4 | 11.3 | 0.00 | 0.00 | 0.00 | 82 | 1015.4 |
| 20260904053734 | 17 | 228 | 6.4 | 11.3 | 0.00 | 0.00 | 0.00 | 82 | 1015.4 |
| 20260904053227 | 17 | 238 | 4.8 | 11.3 | 0.00 | 0.00 | 0.00 | 82 | 1015.5 |
| 20260904053101 | 17 | 238 | 4.8 | 9.7 | 0.00 | 0.00 | 0.00 | 82 | 1015.1 |
| 20260904052718 | 17 | 243 | 4.8 | 9.7 | 0.00 | 0.00 | 0.00 | 82 | 1015.3 |
| 20260904052210 | 17 | 224 | 4.8 | 8.0 | 0.00 | 0.00 | 0.00 | 82 | 1015.3 |
| 20260904051702 | 17 | 244 | 4.8 | 6.4 | 0.00 | 0.00 | 0.00 | 82 | 1015.4 |
| 20260904051536 | 17 | 244 | 3.2 | 6.4 | 0.00 | 0.00 | 0.00 | 82 | 1015.1 |
| 20260904051154 | 17 | 227 | 4.8 | 8.0 | 0.00 | 0.00 | 0.00 | 82 | 1015.4 |
| 20260904050650 | 17 | 238 | 4.8 | 8.0 | 0.00 | 0.00 | 0.00 | 82 | 1015.4 |
| 20260904050148 | 17 | 228 | 4.8 | 12.9 | 0.00 | 0.00 | 0.00 | 82 | 1015.5 |
| 20260904050020 | 17 | 228 | 3.2 | 12.9 | 0.00 | 0.00 | 0.00 | 82 | 1015.0 |
| 20260904045119 | 17 | 225 | 4.8 | 11.3 | 0.00 | 0.00 | 0.00 | 82 | 1015.5 |
| 20260904044649 | 17 | 194 | 3.2 | 8.0 | 0.00 | 0.00 | 0.00 | 82 | 1015.0 |
| 20260904044612 | 17 | 188 | 4.8 | 9.7 | 0.00 | 0.00 | 0.00 | 82 | 1015.4 |
| 20260904044107 | 17 | 248 | 4.8 | 11.3 | 0.00 | 0.00 | 0.00 | 82 | 1015.5 |
| 20260904043555 | 17 | 241 | 4.8 | 9.7 | 0.00 | 0.00 | 0.00 | 82 | 1015.6 |
| 20260904043127 | 17 | 239 | 4.8 | 8.0 | 0.00 | 0.00 | 0.00 | 82 | 1015.3 |
| 20260904042036 | 17 | 229 | 4.8 | 6.4 | 0.00 | 0.00 | 0.00 | 82 | 1015.6 |
| 20260904041532 | 17 | 231 | 3.2 | 8.0 | 0.00 | 0.00 | 0.00 | 82 | 1015.5 |
| 20260904041508 | 17 | 231 | 3.2 | 6.4 | 0.00 | 0.00 | 0.00 | 82 | 1015.1 |
| 20260904041027 | 17 | 210 | 3.2 | 8.0 | 0.00 | 0.00 | 0.00 | 81 | 1015.4 |
| 20260904040515 | 17 | 232 | 4.8 | 8.0 | 0.00 | 0.00 | 0.00 | 81 | 1015.5 |
| 20260904040048 | 17 | 237 | 3.2 | 8.0 | 0.00 | 0.00 | 0.00 | 81 | 1015.1 |
| 20260904040010 | 17 | 238 | 3.2 | 8.0 | 0.00 | 0.00 | 0.00 | 81 | 1015.5 |
| 20260904035504 | 17 | 236 | 3.2 | 11.3 | 0.00 | 0.00 | 0.00 | 81 | 1015.6 |
| 20260904034952 | 17 | 238 | 3.2 | 11.3 | 0.00 | 0.00 | 0.00 | 81 | 1015.7 |
| 20260904034527 | 17 | 240 | 1.6 | 11.3 | 0.00 | 0.00 | 0.00 | 81 | 1015.3 |
| 20260904034451 | 17 | 240 | 3.2 | 11.3 | 0.00 | 0.00 | 0.00 | 81 | 1015.7 |
| 20260904033938 | 17 | 223 | 4.8 | 11.3 | 0.00 | 0.00 | 0.00 | 81 | 1015.6 |
| 20260904033427 | 17 | 247 | 6.4 | 12.9 | 0.00 | 0.00 | 0.00 | 81 | 1015.6 |
| 20260904033056 | 17 | 234 | 3.2 | 12.9 | 0.00 | 0.00 | 0.00 | 81 | 1015.3 |
| 20260904032914 | 17 | 232 | 6.4 | 12.9 | 0.00 | 0.00 | 0.00 | 81 | 1015.6 |
| 20260904031852 | 17 | 234 | 4.8 | 11.3 | 0.00 | 0.00 | 0.00 | 81 | 1015.7 |
| 20260904031519 | 17 | 243 | 3.2 | 11.3 | 0.00 | 0.00 | 0.00 | 81 | 1015.2 |
| 20260904031339 | 17 | 242 | 3.2 | 11.3 | 0.00 | 0.00 | 0.00 | 81 | 1015.7 |
| 20260904030831 | 17 | 240 | 4.8 | 8.0 | 0.00 | 0.00 | 0.00 | 81 | 1015.7 |
| 20260904030318 | 17 | 239 | 4.8 | 8.0 | 0.00 | 0.00 | 0.00 | 81 | 1015.6 |
| 20260904030056 | 17 | 239 | 3.2 | 8.0 | 0.00 | 0.00 | 0.00 | 81 | 1015.2 |
| 20260904025259 | 17 | 243 | 3.2 | 8.0 | 0.00 | 0.00 | 0.00 | 80 | 1015.5 |
| 20260904024744 | 17 | 229 | 3.2 | 6.4 | 0.00 | 0.00 | 0.00 | 80 | 1015.5 |
| 20260904024515 | 17 | 229 | 3.2 | 6.4 | 0.00 | 0.00 | 0.00 | 80 | 1015.1 |
| 20260904024234 | 17 | 223 | 3.2 | 6.4 | 0.00 | 0.00 | 0.00 | 80 | 1015.5 |
| 20260904023722 | 17 | 238 | 4.8 | 8.0 | 0.00 | 0.00 | 0.00 | 80 | 1015.6 |
| 20260904023043 | 17 | 245 | 3.2 | 8.0 | 0.00 | 0.00 | 0.00 | 80 | 1015.3 |
| 20260904022653 | 17 | 232 | 3.2 | 9.7 | 0.00 | 0.00 | 0.00 | 80 | 1015.7 |
| 20260904022143 | 17 | 246 | 4.8 | 9.7 | 0.00 | 0.00 | 0.00 | 80 | 1015.7 |
| 20260904021634 | 17 | 244 | 3.2 | 8.0 | 0.00 | 0.00 | 0.00 | 80 | 1015.6 |
| 20260904021508 | 17 | 238 | 3.2 | 8.0 | 0.00 | 0.00 | 0.00 | 80 | 1015.3 |
| 20260904020605 | 17 | 237 | 3.2 | 8.0 | 0.00 | 0.00 | 0.00 | 80 | 1015.5 |
| 20260904020101 | 17 | 237 | 3.2 | 8.0 | 0.00 | 0.00 | 0.00 | 80 | 1015.6 |
| 20260904020037 | 17 | 237 | 3.2 | 8.0 | 0.00 | 0.00 | 0.00 | 80 | 1015.2 |
| 20260904015536 | 17 | 235 | 3.2 | 4.8 | 0.00 | 0.00 | 0.00 | 80 | 1015.6 |
| 20260904015023 | 17 | 236 | 3.2 | 8.0 | 0.00 | 0.00 | 0.00 | 81 | 1015.7 |
| 20260904014557 | 16 | 236 | 3.2 | 8.0 | 0.00 | 0.00 | 0.00 | 81 | 1015.3 |
| 20260904014511 | 17 | 236 | 3.2 | 8.0 | 0.00 | 0.00 | 0.00 | 81 | 1015.6 |
| 20260904013957 | 17 | 240 | 1.6 | 4.8 | 0.00 | 0.00 | 0.00 | 81 | 1015.6 |
| 20260904013443 | 16 | 240 | 1.6 | 6.4 | 0.00 | 0.00 | 0.00 | 81 | 1015.6 |
| 20260904013009 | 16 | 241 | 1.6 | 6.4 | 0.00 | 0.00 | 0.00 | 81 | 1015.3 |
| 20260904012932 | 16 | 241 | 1.6 | 6.4 | 0.00 | 0.00 | 0.00 | 81 | 1015.7 |
| 20260904012417 | 16 | 241 | 1.6 | 8.0 | 0.00 | 0.00 | 0.00 | 81 | 1015.6 |
| 20260904011906 | 16 | 242 | 1.6 | 8.0 | 0.00 | 0.00 | 0.00 | 80 | 1015.6 |
| 20260904011534 | 16 | 232 | 0.0 | 4.8 | 0.00 | 0.00 | 0.00 | 80 | 1015.3 |
| 20260904011407 | 17 | 232 | 3.2 | 6.4 | 0.00 | 0.00 | 0.00 | 80 | 1015.7 |
| 20260904010838 | 17 | 232 | 3.2 | 6.4 | 0.00 | 0.00 | 0.00 | 80 | 1015.7 |
| 20260904010326 | 17 | 232 | 3.2 | 6.4 | 0.00 | 0.00 | 0.00 | 80 | 1015.7 |
| 20260904010053 | 16 | 232 | 3.2 | 6.4 | 0.00 | 0.00 | 0.00 | 79 | 1015.4 |
| 20260904005812 | 17 | 234 | 3.2 | 6.4 | 0.00 | 0.00 | 0.00 | 79 | 1015.7 |
| 20260904005306 | 17 | 234 | 3.2 | 6.4 | 0.00 | 0.00 | 0.00 | 79 | 1015.8 |
| 20260904004748 | 17 | 234 | 3.2 | 6.4 | 0.00 | 0.00 | 0.00 | 78 | 1015.8 |
| 20260904004517 | 17 | 233 | 1.6 | 4.8 | 0.00 | 0.00 | 0.00 | 78 | 1015.5 |
| 20260904003718 | 17 | 233 | 4.8 | 8.0 | 0.00 | 0.00 | 0.00 | 77 | 1015.8 |
| 20260904003203 | 17 | 233 | 3.2 | 6.4 | 0.00 | 0.00 | 0.00 | 77 | 1015.8 |
| 20260904003035 | 17 | 227 | 3.2 | 6.4 | 0.00 | 0.00 | 0.00 | 77 | 1015.5 |
| 20260904002647 | 17 | 227 | 3.2 | 4.8 | 0.00 | 0.00 | 0.00 | 77 | 1015.8 |
| 20260904002133 | 17 | 227 | 3.2 | 4.8 | 0.00 | 0.00 | 0.00 | 76 | 1015.7 |
| 20260904001553 | 17 | 227 | 1.6 | 4.8 | 0.00 | 0.00 | 0.00 | 76 | 1015.5 |
| 20260904000550 | 17 | 232 | 3.2 | 8.0 | 0.00 | 0.00 | 0.00 | 75 | 1015.9 |
| 20260904000033 | 17 | 232 | 3.2 | 8.0 | 0.00 | 0.00 | 0.00 | 75 | 1015.8 |
| 20260904000010 | 17 | 232 | 3.2 | 8.0 | 0.00 | 0.00 | 0.00 | 75 | 1015.5 |
| 20260903235520 | 17 | 211 | 3.2 | 6.4 | 0.00 | 0.00 | 0.00 | 75 | 1015.8 |
| 20260903235018 | 17 | 218 | 3.2 | 6.4 | 0.00 | 0.00 | 0.00 | 75 | 1015.8 |
| 20260903234527 | 17 | 230 | 1.6 | 4.8 | 0.00 | 0.00 | 0.00 | 75 | 1015.5 |
| 20260903234449 | 17 | 230 | 3.2 | 6.4 | 0.00 | 0.00 | 0.00 | 75 | 1015.8 |
| 20260903233935 | 17 | 230 | 3.2 | 6.4 | 0.00 | 0.00 | 0.00 | 75 | 1015.9 |
| 20260903233421 | 17 | 228 | 1.6 | 4.8 | 0.00 | 0.00 | 0.00 | 75 | 1015.9 |
| 20260903233040 | 17 | 227 | 0.0 | 4.8 | 0.00 | 0.00 | 0.00 | 75 | 1015.6 |
| 20260903232859 | 17 | 227 | 3.2 | 4.8 | 0.00 | 0.00 | 0.00 | 75 | 1015.9 |
| 20260903232343 | 17 | 227 | 3.2 | 4.8 | 0.00 | 0.00 | 0.00 | 75 | 1016.0 |
| 20260903231829 | 17 | 227 | 3.2 | 6.4 | 0.00 | 0.00 | 0.00 | 75 | 1016.1 |
| 20260903231610 | 17 | 227 | 3.2 | 6.4 | 0.00 | 0.00 | 0.00 | 75 | 1015.9 |
| 20260903231313 | 17 | 240 | 1.6 | 4.8 | 0.00 | 0.00 | 0.00 | 76 | 1016.1 |
| 20260903230801 | 17 | 240 | 1.6 | 4.8 | 0.00 | 0.00 | 0.00 | 76 | 1016.2 |
| 20260903230016 | 17 | 240 | 1.6 | 4.8 | 0.00 | 0.00 | 0.00 | 76 | 1015.9 |
| 20260903225732 | 17 | 239 | 1.6 | 4.8 | 0.00 | 0.00 | 0.00 | 77 | 1016.2 |
| 20260903224703 | 17 | 239 | 1.6 | 4.8 | 0.00 | 0.00 | 0.00 | 77 | 1016.2 |
| 20260903224537 | 17 | 239 | 0.0 | 4.8 | 0.00 | 0.00 | 0.00 | 77 | 1015.9 |
| 20260903224154 | 17 | 239 | 1.6 | 4.8 | 0.00 | 0.00 | 0.00 | 79 | 1016.2 |
| 20260903223639 | 17 | 239 | 1.6 | 4.8 | 0.00 | 0.00 | 0.00 | 78 | 1016.2 |
| 20260903223126 | 17 | 239 | 1.6 | 4.8 | 0.00 | 0.00 | 0.00 | 80 | 1016.2 |
| 20260903223113 | 16 | 239 | 1.6 | 4.8 | 0.00 | 0.00 | 0.00 | 80 | 1016.0 |
| 20260903222611 | 16 | 240 | 0.0 | 4.8 | 0.00 | 0.00 | 0.00 | 82 | 1016.2 |
| 20260903222109 | 16 | 240 | 0.0 | 4.8 | 0.00 | 0.00 | 0.00 | 83 | 1016.3 |
| 20260903221545 | 16 | 240 | 0.0 | 4.8 | 0.00 | 0.00 | 0.00 | 84 | 1016.2 |
| 20260903221537 | 16 | 240 | 0.0 | 4.8 | 0.00 | 0.00 | 0.00 | 84 | 1016.0 |
| 20260903221035 | 16 | 240 | 0.0 | 3.2 | 0.00 | 0.00 | 0.00 | 85 | 1016.2 |
| 20260903220521 | 16 | 240 | 0.0 | 0.0 | 0.00 | 0.00 | 0.00 | 85 | 1016.3 |
| 20260903220148 | 16 | 240 | 0.0 | 0.0 | 0.00 | 0.00 | 0.00 | 85 | 1016.0 |
| 20260903220009 | 16 | 240 | 0.0 | 0.0 | 0.00 | 0.00 | 0.00 | 85 | 1016.2 |
| 20260903215455 | 16 | 240 | 0.0 | 0.0 | 0.00 | 0.00 | 0.00 | 83 | 1016.3 |
| 20260903214938 | 16 | 240 | 0.0 | 3.2 | 0.00 | 0.00 | 0.00 | 82 | 1016.4 |
| 20260903214506 | 16 | 240 | 0.0 | 4.8 | 0.00 | 0.00 | 0.00 | 83 | 1016.1 |
| 20260903214429 | 16 | 240 | 1.6 | 4.8 | 0.00 | 0.00 | 0.00 | 83 | 1016.3 |
| 20260903213913 | 16 | 240 | 1.6 | 4.8 | 0.00 | 0.00 | 0.00 | 83 | 1016.4 |
| 20260903213028 | 16 | 240 | 0.0 | 4.8 | 0.00 | 0.00 | 0.00 | 86 | 1016.0 |
| 20260903212843 | 16 | 240 | 1.6 | 4.8 | 0.00 | 0.00 | 0.00 | 86 | 1016.3 |
| 20260903212328 | 15 | 240 | 3.2 | 4.8 | 0.00 | 0.00 | 0.00 | 88 | 1016.3 |
| 20260903211809 | 15 | 238 | 3.2 | 8.0 | 0.00 | 0.00 | 0.00 | 92 | 1016.3 |
| 20260903211538 | 14 | 238 | 3.2 | 8.0 | 0.00 | 0.00 | 0.00 | 93 | 1016.0 |
| 20260903211250 | 14 | 265 | 3.2 | 6.4 | 0.00 | 0.00 | 0.00 | 93 | 1016.3 |
| 20260903210729 | 13 | 244 | 0.0 | 6.4 | 0.00 | 0.00 | 0.00 | 93 | 1016.4 |
| 20260903210231 | 13 | 242 | 0.0 | 3.2 | 0.00 | 0.00 | 0.00 | 93 | 1016.4 |
| 20260903210058 | 13 | 242 | 0.0 | 3.2 | 0.00 | 0.00 | 0.00 | 93 | 1016.1 |
| 20260903205719 | 13 | 242 | 0.0 | 3.2 | 0.00 | 0.00 | 0.00 | 93 | 1016.4 |
| 20260903205203 | 13 | 242 | 0.0 | 0.0 | 0.00 | 0.00 | 0.00 | 92 | 1016.3 |
| 20260903204649 | 13 | 242 | 0.0 | 0.0 | 0.00 | 0.00 | 0.00 | 92 | 1016.2 |
| 20260903204520 | 13 | 242 | 0.0 | 0.0 | 0.00 | 0.00 | 0.00 | 92 | 1016.0 |
| 20260903204136 | 13 | 242 | 0.0 | 0.0 | 0.00 | 0.00 | 0.00 | 92 | 1016.2 |
| 20260903203622 | 13 | 242 | 0.0 | 1.6 | 0.00 | 0.00 | 0.00 | 92 | 1016.3 |
| 20260903203109 | 13 | 242 | 0.0 | 3.2 | 0.00 | 0.00 | 0.00 | 92 | 1016.3 |
| 20260903203044 | 13 | 242 | 0.0 | 3.2 | 0.00 | 0.00 | 0.00 | 92 | 1016.1 |
| 20260903202554 | 13 | 242 | 0.0 | 3.2 | 0.00 | 0.00 | 0.00 | 91 | 1016.3 |
| 20260903202038 | 13 | 242 | 0.0 | 0.0 | 0.00 | 0.00 | 0.00 | 91 | 1016.4 |
| 20260903201602 | 13 | 242 | 0.0 | 0.0 | 0.00 | 0.00 | 0.00 | 91 | 1016.0 |
| 20260903201525 | 13 | 242 | 0.0 | 0.0 | 0.00 | 0.00 | 0.00 | 91 | 1016.3 |
| 20260903201005 | 14 | 242 | 0.0 | 0.0 | 0.00 | 0.00 | 0.00 | 90 | 1016.4 |
| 20260903200450 | 14 | 242 | 0.0 | 0.0 | 0.00 | 0.00 | 0.00 | 90 | 1016.4 |
| 20260903200035 | 13 | 242 | 0.0 | 0.0 | 0.00 | 0.00 | 0.00 | 90 | 1016.3 |
| 20260903195938 | 14 | 242 | 0.0 | 0.0 | 0.00 | 0.00 | 0.00 | 90 | 1016.5 |
| 20260903195419 | 14 | 242 | 0.0 | 0.0 | 0.00 | 0.00 | 0.00 | 90 | 1016.4 |
| 20260903194902 | 14 | 242 | 0.0 | 0.0 | 0.00 | 0.00 | 0.00 | 89 | 1016.5 |
| 20260903194544 | 14 | 242 | 0.0 | 0.0 | 0.00 | 0.00 | 0.00 | 89 | 1016.2 |
| 20260903194353 | 15 | 242 | 0.0 | 0.0 | 0.00 | 0.00 | 0.00 | 89 | 1016.5 |
| 20260903193842 | 15 | 242 | 0.0 | 1.6 | 0.00 | 0.00 | 0.00 | 89 | 1016.5 |
| 20260903193330 | 15 | 242 | 0.0 | 1.6 | 0.00 | 0.00 | 0.00 | 89 | 1016.4 |
| 20260903193002 | 15 | 242 | 0.0 | 3.2 | 0.00 | 0.00 | 0.00 | 88 | 1016.2 |
| 20260903192310 | 15 | 242 | 0.0 | 3.2 | 0.00 | 0.00 | 0.00 | 88 | 1016.4 |
| 20260903191802 | 15 | 242 | 0.0 | 0.0 | 0.00 | 0.00 | 0.00 | 87 | 1016.4 |
| 20260903191553 | 15 | 242 | 0.0 | 0.0 | 0.00 | 0.00 | 0.00 | 87 | 1016.1 |
| 20260903191257 | 15 | 242 | 0.0 | 0.0 | 0.00 | 0.00 | 0.00 | 87 | 1016.5 |
| 20260903190741 | 15 | 242 | 0.0 | 0.0 | 0.00 | 0.00 | 0.00 | 86 | 1016.5 |
| 20260903190241 | 15 | 242 | 0.0 | 0.0 | 0.00 | 0.00 | 0.00 | 85 | 1016.5 |
| 20260903190019 | 15 | 242 | 0.0 | 0.0 | 0.00 | 0.00 | 0.00 | 85 | 1016.2 |
| 20260903185740 | 16 | 242 | 0.0 | 0.0 | 0.00 | 0.00 | 0.00 | 84 | 1016.5 |
| 20260903185232 | 16 | 242 | 0.0 | 0.0 | 0.00 | 0.00 | 0.00 | 84 | 1016.5 |
| 20260903184709 | 16 | 242 | 0.0 | 1.6 | 0.00 | 0.00 | 0.00 | 84 | 1016.6 |
| 20260903184542 | 16 | 242 | 0.0 | 1.6 | 0.00 | 0.00 | 0.00 | 84 | 1016.3 |
| 20260903184158 | 16 | 242 | 0.0 | 1.6 | 0.00 | 0.00 | 0.00 | 83 | 1016.6 |
| 20260903183009 | 16 | 242 | 0.0 | 0.0 | 0.00 | 0.00 | 0.00 | 82 | 1016.4 |
| 20260903182627 | 16 | 242 | 0.0 | 3.2 | 0.00 | 0.00 | 0.00 | 82 | 1016.6 |
| 20260903181618 | 17 | 242 | 0.0 | 3.2 | 0.00 | 0.00 | 0.00 | 81 | 1016.6 |
| 20260903181608 | 17 | 242 | 0.0 | 3.2 | 0.00 | 0.00 | 0.00 | 81 | 1016.3 |
| 20260903181121 | 17 | 242 | 0.0 | 0.0 | 0.00 | 0.00 | 0.00 | 81 | 1016.5 |
| 20260903180558 | 17 | 242 | 0.0 | 1.6 | 0.00 | 0.00 | 0.00 | 80 | 1016.5 |
| 20260903180056 | 18 | 242 | 0.0 | 1.6 | 0.00 | 0.00 | 0.00 | 80 | 1016.5 |
| 20260903180019 | 17 | 242 | 0.0 | 1.6 | 0.00 | 0.00 | 0.00 | 80 | 1016.2 |
| 20260903175532 | 18 | 242 | 0.0 | 1.6 | 0.00 | 0.00 | 0.00 | 79 | 1016.5 |
| 20260903175020 | 18 | 242 | 0.0 | 1.6 | 0.00 | 0.00 | 0.00 | 77 | 1016.4 |
| 20260903174549 | 18 | 242 | 0.0 | 1.6 | 0.00 | 0.00 | 0.00 | 77 | 1016.1 |
| 20260903174512 | 18 | 242 | 0.0 | 1.6 | 0.00 | 0.00 | 0.00 | 77 | 1016.4 |
| 20260903173958 | 19 | 242 | 0.0 | 1.6 | 0.00 | 0.00 | 0.00 | 76 | 1016.4 |
| 20260903173441 | 20 | 242 | 0.0 | 1.6 | 0.00 | 0.00 | 0.00 | 75 | 1016.4 |
| 20260903173009 | 19 | 242 | 0.0 | 3.2 | 0.00 | 0.00 | 0.00 | 75 | 1016.1 |
| 20260903172933 | 20 | 242 | 0.0 | 3.2 | 0.00 | 0.00 | 0.00 | 75 | 1016.3 |
| 20260903172417 | 20 | 242 | 0.0 | 1.6 | 0.00 | 0.00 | 0.00 | 73 | 1016.5 |
| 20260903171920 | 20 | 242 | 0.0 | 3.2 | 0.00 | 0.00 | 0.00 | 72 | 1016.5 |
| 20260903171528 | 20 | 242 | 0.0 | 3.2 | 0.00 | 0.00 | 0.00 | 71 | 1016.2 |
| 20260903171343 | 20 | 242 | 0.0 | 3.2 | 0.00 | 0.00 | 0.00 | 71 | 1016.5 |
| 20260903170831 | 21 | 242 | 0.0 | 3.2 | 0.00 | 0.00 | 0.00 | 70 | 1016.5 |
| 20260903170158 | 21 | 242 | 0.0 | 1.6 | 0.00 | 0.00 | 0.00 | 67 | 1016.1 |
| 20260903165810 | 21 | 242 | 1.6 | 3.2 | 0.00 | 0.00 | 0.00 | 66 | 1016.4 |
| 20260903165309 | 21 | 242 | 1.6 | 6.4 | 0.00 | 0.00 | 0.00 | 65 | 1016.2 |
| 20260903164756 | 21 | 242 | 3.2 | 6.4 | 0.00 | 0.00 | 0.00 | 64 | 1016.3 |
| 20260903164523 | 21 | 242 | 1.6 | 6.4 | 0.00 | 0.00 | 0.00 | 65 | 1016.0 |
| 20260903164246 | 21 | 243 | 3.2 | 6.4 | 0.00 | 0.00 | 0.00 | 65 | 1016.4 |
| 20260903163728 | 21 | 244 | 1.6 | 6.4 | 0.00 | 0.00 | 0.00 | 65 | 1016.5 |
| 20260903163219 | 21 | 244 | 1.6 | 3.2 | 0.00 | 0.00 | 0.00 | 65 | 1016.5 |
| 20260903163051 | 21 | 244 | 0.0 | 3.2 | 0.00 | 0.00 | 0.00 | 64 | 1016.1 |
| 20260903162705 | 22 | 244 | 1.6 | 8.0 | 0.00 | 0.00 | 0.00 | 63 | 1016.3 |
| 20260903162153 | 22 | 244 | 1.6 | 8.0 | 0.00 | 0.00 | 0.00 | 63 | 1016.3 |
| 20260903161641 | 22 | 256 | 1.6 | 6.4 | 0.00 | 0.00 | 0.00 | 62 | 1016.3 |
| 20260903161514 | 22 | 256 | 0.0 | 6.4 | 0.00 | 0.00 | 0.00 | 62 | 1016.0 |
| 20260903160109 | 22 | 237 | 3.2 | 8.0 | 0.00 | 0.00 | 0.00 | 63 | 1016.4 |
| 20260903160043 | 22 | 237 | 0.0 | 8.0 | 0.00 | 0.00 | 0.00 | 62 | 1016.1 |
| 20260903155556 | 22 | 242 | 1.6 | 6.4 | 0.00 | 0.00 | 0.00 | 63 | 1016.3 |